Wind_Speed
27 24 23 21 20 21 23 23 22 23 23 23 23 23 22 21 22 22 19 17 18 18 16 15 16 16 16 16 16 19 25 31 34 35 37 40 42 44 46 48 49 50 51 51 51 52 52 53 55 56 57 57 55 53 54 55 55 54 52 49 46 45 45 45 42 41 40 39 37 35 35 34 33 33 34 34 34 34 34 34 33 33 33 33 33 33 33
28 26 24 23 22 21 22 21 20 21 23 25 25 25 24 23 24 24 23 21 20 19 17 15 15 15 16 16 16 16 18 24 30 34 34 36 39 42 43 46 48 49 50 51 51 51 52 52 53 55 55 56 55 55 56 58 58 57 56 54 50 47 46 46 45 43 42 42 42 40 39 37 35 34 35 35 35 35 35 34 34 33 33 33 33 34 34
30 28 26 26 25 24 23 22 20 20 21 24 26 26 26 25 25 25 25 25 23 21 19 17 16 16 16 16 16 16 16 17 23 30 34 35 36 39 42 43 45 48 49 50 51 51 51 52 52 53 54 55 55 55 56 59 60 60 60 58 55 52 49 48 47 46 45 45 44 43 42 41 39 38 36 36 36 35 35 34 34 34 33 33 33 33 33
31 30 29 28 28 27 26 24 22 22 23 23 25 26 26 27 26 25 26 27 26 23 21 19 17 16 16 16 17 16 16 15 17 23 31 35 35 36 39 42 43 46 48 49 50 51 51 52 52 52 53 54 55 56 57 59 61 62 63 62 60 57 54 52 51 50 48 47 46 44 44 44 44 42 40 38 37 37 36 35 34 34 32 32 32 31 31
33 32 32 32 30 29 27 25 25 26 25 24 23 24 27 28 26 26 27 29 28 25 24 22 19 17 15 16 17 16 16 16 16 17 23 30 35 36 37 40 42 44 45 48 49 50 51 51 52 52 52 53 54 55 56 58 61 63 64 65 64 62 59 57 56 55 53 52 51 49 49 48 47 46 45 43 41 40 39 37 36 35 33 33 34 33 32
35 34 37 36 33 31 28 28 30 29 27 26 24 23 26 27 26 27 29 30 29 28 27 25 22 18 16 16 16 16 16 16 16 16 18 23 30 35 37 38 39 41 43 45 47 49 50 51 52 52 52 53 54 54 56 58 61 63 65 66 67 66 64 62 61 60 59 58 56 54 53 52 51 49 48 47 46 44 43 41 39 38 36 36 36 35 33
37 37 41 40 35 33 32 32 34 32 28 28 26 24 24 26 27 28 29 29 30 31 30 28 24 20 17 16 16 17 17 16 16 16 17 18 22 29 35 37 37 39 41 43 45 47 49 50 51 52 53 53 54 54 55 57 59 63 65 67 68 69 68 67 65 64 63 62 61 59 57 55 54 53 52 51 49 48 47 45 44 42 41 40 39 37 35
41 41 43 41 37 36 35 36 37 34 30 29 28 25 25 26 29 31 29 27 28 31 33 31 27 22 18 17 17 17 18 18 17 16 16 17 18 22 28 34 36 37 39 41 43 44 47 49 51 52 53 53 54 54 55 56 58 61 65 67 68 70 70 70 69 68 67 66 65 64 62 59 58 56 55 54 53 52 51 50 48 47 46 44 43 42 40
45 43 43 41 38 37 37 38 39 36 33 31 29 27 27 27 30 32 31 27 28 31 33 33 30 25 21 20 19 18 19 19 19 18 17 17 17 19 23 28 34 37 38 39 40 42 44 47 49 51 52 53 54 54 55 56 57 59 62 66 68 70 71 71 71 70 70 69 68 67 66 64 62 60 59 58 56 55 54 53 53 52 51 50 48 48 47
47 46 45 43 41 39 38 38 39 38 35 33 32 29 28 29 29 32 32 29 29 31 33 34 33 30 26 23 21 20 20 21 20 20 19 18 18 19 21 24 29 35 38 39 39 40 42 44 46 49 51 53 54 55 56 56 57 58 60 63 66 69 71 72 72 72 71 71 70 70 69 68 66 64 63 62 60 59 57 57 56 55 55 54 53 53 52
50 48 48 46 44 43 40 37 39 40 37 35 34 31 30 29 29 31 32 31 30 32 33 33 34 34 31 27 24 23 22 21 21 22 21 21 20 20 21 23 25 30 36 39 40 40 41 42 44 47 49 51 54 55 56 57 58 59 60 61 64 67 70 72 73 74 73 72 71 71 71 70 69 68 66 65 64 63 62 61 60 59 58 58 57 57 56
54 52 52 50 49 47 43 40 40 41 40 39 36 33 32 31 31 32 33 34 33 33 33 33 34 35 33 29 27 27 24 22 22 23 23 23 22 21 22 23 24 27 31 36 40 41 41 41 43 45 47 49 52 54 56 57 58 59 60 61 62 64 67 70 73 75 75 75 74 73 72 72 72 71 70 69 68 67 66 65 64 63 62 61 61 61 60
58 57 56 54 52 50 48 45 43 42 42 41 39 37 36 34 34 34 35 36 37 35 34 33 34 34 32 29 29 29 25 23 24 24 25 25 24 23 23 23 24 25 28 32 37 40 42 42 42 44 45 47 50 52 54 56 58 60 61 61 62 63 64 67 70 73 76 77 77 76 75 74 73 73 73 72 72 71 70 69 67 67 66 65 64 64 63
61 61 60 58 55 52 50 48 46 44 43 43 42 42 39 38 38 37 35 37 38 37 35 35 35 34 31 30 31 30 27 25 25 26 26 26 26 25 24 24 24 25 26 29 32 37 41 43 43 44 45 46 48 50 52 54 56 58 60 61 62 63 64 65 66 69 72 75 77 78 78 77 76 75 75 74 74 74 74 73 72 70 70 69 68 67 67
62 62 62 59 55 52 51 51 49 46 45 45 45 44 43 41 41 39 36 36 38 39 37 36 35 34 32 31 31 30 28 27 27 27 27 26 26 27 26 25 26 26 26 27 29 33 38 41 44 44 45 45 46 47 49 51 53 55 58 60 61 63 63 64 64 65 67 70 73 76 79 80 79 78 77 77 76 76 76 76 75 74 74 73 72 71 70
63 63 62 59 55 53 53 53 51 49 47 47 47 47 46 44 42 39 37 36 37 39 39 37 36 34 33 33 32 29 28 28 28 27 27 26 26 27 27 27 27 27 28 28 29 30 33 37 42 44 45 45 45 45 47 48 50 51 53 56 58 60 62 63 64 64 65 66 67 70 73 76 78 79 79 79 78 78 78 78 78 78 77 76 76 75 74
61 62 62 60 57 55 54 54 53 50 48 48 48 48 47 45 43 40 38 37 36 38 39 38 37 36 35 34 32 29 27 29 28 26 25 26 26 27 28 29 29 29 29 29 29 29 30 33 38 41 44 45 45 45 45 46 47 49 50 52 54 56 58 60 62 63 64 65 65 66 67 68 71 73 75 76 77 78 79 79 79 79 80 79 79 78 78
60 61 62 60 58 55 54 54 53 51 49 48 49 49 48 46 43 41 39 37 36 38 39 39 38 37 36 35 33 29 27 28 29 27 26 26 26 27 28 29 30 30 30 30 30 29 29 31 34 38 41 43 44 44 44 44 45 47 48 49 50 52 53 55 57 59 61 62 64 64 65 65 66 67 69 70 72 74 75 76 77 78 79 79 80 80 80
61 61 61 61 59 56 55 54 53 52 50 49 49 49 48 47 44 42 40 39 37 37 39 40 39 38 38 36 33 31 28 27 28 30 28 27 27 28 28 30 30 31 31 31 30 30 29 30 32 35 38 40 41 43 44 43 44 45 46 47 48 48 49 50 52 54 56 58 60 61 62 63 64 64 65 66 67 69 70 71 72 73 74 74 75 76 76
60 61 61 61 60 58 56 55 54 52 51 50 49 49 48 48 46 43 41 40 38 37 38 40 40 39 38 37 35 33 30 28 29 31 31 29 28 29 29 30 31 32 32 31 31 30 29 29 30 32 34 36 38 40 42 42 42 43 44 45 46 46 46 47 48 49 51 52 54 56 58 59 61 62 63 64 65 66 66 67 68 68 69 69 69 70 70
60 60 60 60 60 59 56 55 53 52 51 50 50 50 50 49 47 44 42 41 40 37 37 39 41 39 38 37 36 35 33 30 30 31 32 30 29 30 30 31 32 33 32 31 31 30 30 29 29 30 31 33 35 37 39 41 41 41 41 42 43 44 44 45 45 46 47 48 49 50 52 54 56 58 59 61 62 63 64 64 65 65 66 66 66 66 65
59 59 58 58 59 58 56 54 54 54 53 52 51 51 51 49 48 46 44 43 41 38 36 38 41 41 39 37 37 36 34 32 31 32 33 32 31 31 31 32 33 33 32 31 31 30 30 29 28 28 29 30 31 33 36 38 39 39 39 40 41 42 42 43 43 43 43 44 45 46 47 49 50 52 54 55 57 58 60 60 61 62 62 62 62 62 62
60 60 59 57 56 55 55 54 54 54 54 54 53 52 51 49 47 46 45 44 42 40 37 38 41 43 42 39 38 37 35 33 32 34 35 35 34 32 32 33 34 34 33 32 31 30 29 28 28 27 27 28 28 30 32 34 36 36 37 37 38 39 40 41 41 41 41 41 42 43 44 45 46 47 48 49 51 52 53 55 56 56 57 57 57 58 58
61 61 60 57 55 54 55 55 54 55 54 54 52 51 50 49 47 46 45 44 43 42 39 38 40 43 44 42 40 38 36 33 33 35 36 37 36 34 33 34 34 34 34 33 31 30 29 28 27 26 26 26 27 28 30 31 33 33 34 34 35 37 38 39 39 38 38 39 39 40 41 42 43 44 44 45 46 47 48 49 50 51 52 52 53 53 54
62 60 59 57 57 56 55 55 56 56 55 54 52 49 48 47 46 46 45 45 45 44 42 40 40 42 44 43 41 38 36 34 34 36 37 38 38 36 35 35 35 35 35 34 32 31 30 28 27 25 25 25 26 27 28 29 30 31 31 32 33 34 35 36 36 36 36 36 37 38 39 40 41 41 42 42 43 44 45 46 47 47 48 49 49 50 51
61 59 57 57 57 57 56 56 56 56 55 54 52 49 48 47 47 47 48 48 48 47 45 43 42 41 42 43 40 38 36 35 35 36 38 38 37 36 36 36 36 36 36 35 33 31 30 28 26 24 24 24 25 26 27 28 28 29 29 29 30 31 32 33 33 33 33 34 34 35 37 38 39 40 40 40 41 41 42 43 45 45 46 47 47 48 48
58 57 56 57 57 56 56 57 57 56 55 54 51 50 49 49 49 50 49 50 51 50 48 47 45 42 41 41 39 37 37 37 36 36 37 37 37 37 38 38 37 37 37 35 33 32 30 27 25 23 23 24 24 25 26 27 27 27 28 28 28 28 29 30 30 31 31 32 32 34 35 37 38 38 39 39 39 40 41 42 43 44 45 45 46 46 46
57 55 56 56 57 56 57 57 56 55 55 54 52 51 51 50 51 51 51 51 52 51 51 49 46 42 43 43 39 38 38 38 38 38 37 38 39 41 40 38 36 37 37 35 32 31 29 26 23 22 23 23 24 25 25 26 26 26 26 26 26 26 26 27 28 29 29 29 30 32 34 35 36 37 37 38 38 39 39 40 41 42 43 44 44 45 45
56 56 56 57 57 56 56 57 56 55 55 54 53 52 51 51 52 52 52 52 53 53 52 50 45 43 44 45 43 41 41 40 40 40 40 40 42 41 39 37 36 36 35 34 32 31 28 24 21 21 22 23 23 23 24 25 25 25 24 24 24 24 24 25 27 28 28 28 29 30 32 34 35 36 36 36 36 36 37 38 39 40 41 42 43 44 44
58 58 59 59 58 56 56 57 56 55 54 54 54 54 54 53 53 53 53 54 54 54 52 47 42 41 43 45 45 45 44 43 43 42 42 42 42 39 36 34 33 33 34 34 32 30 26 22 19 20 21 21 21 22 23 23 23 23 23 22 22 22 23 24 25 26 27 28 28 29 31 33 34 35 35 35 34 34 35 35 37 38 39 40 41 41 42
62 62 61 59 58 56 56 55 55 54 53 52 53 55 55 55 54 55 55 55 54 53 49 43 38 37 40 42 44 45 45 44 43 43 43 43 40 37 34 31 30 31 33 33 31 28 24 20 19 19 20 19 20 20 20 21 22 22 22 21 21 21 21 23 24 25 26 27 28 28 30 31 33 34 34 34 34 33 33 34 35 36 37 38 39 39 40
62 62 61 58 56 55 53 52 51 50 50 50 52 54 55 54 53 55 55 54 53 50 44 37 34 35 38 41 42 43 43 42 43 44 44 41 38 34 31 29 30 31 31 30 28 25 22 20 19 20 19 19 18 18 18 19 20 21 21 21 20 21 21 22 23 24 25 26 27 28 28 29 31 32 33 33 33 33 33 33 34 35 36 37 38 39 39
58 58 56 53 51 50 50 50 49 48 49 50 52 54 55 54 54 54 53 51 49 45 38 34 34 36 39 39 40 40 41 41 42 42 39 36 34 31 27 27 29 29 27 26 25 23 21 20 20 20 19 19 18 18 18 19 20 20 21 20 20 21 21 22 22 23 24 25 25 26 27 28 29 30 31 32 33 33 33 33 34 35 36 37 37 38 38
50 49 48 47 46 45 46 47 48 47 48 49 51 53 54 53 52 51 49 47 45 41 37 33 32 34 37 40 41 40 39 37 34 32 30 30 30 27 24 24 25 23 21 21 21 19 19 20 21 21 20 19 19 19 19 20 21 21 21 20 20 20 21 21 21 21 22 23 23 24 25 26 28 29 30 31 32 33 33 34 34 34 35 36 36 37 37
40 40 39 39 39 38 39 40 40 40 41 43 44 47 48 47 46 45 44 43 42 40 39 38 35 33 34 37 39 40 39 34 30 28 27 27 27 25 23 22 22 19 17 17 17 16 18 20 22 22 21 20 20 20 20 20 21 21 21 21 20 20 20 20 19 20 20 21 21 22 23 24 26 27 28 29 30 32 33 34 34 35 35 36 37 37 38
37 36 35 35 34 32 34 36 36 36 37 38 39 40 41 41 41 41 40 40 39 39 41 42 42 41 38 36 36 38 39 37 35 33 31 29 27 26 24 25 25 22 19 18 17 16 18 20 22 23 22 21 20 20 20 20 20 19 19 19 19 18 18 18 17 17 17 17 18 19 20 22 24 26 27 28 29 30 32 33 34 35 36 37 38 38 39
33 32 32 32 33 31 32 35 37 36 36 37 37 36 37 37 37 37 37 38 39 41 42 44 45 45 42 39 38 41 41 38 35 34 31 29 28 28 29 30 30 28 25 23 22 22 21 21 23 24 24 22 21 20 20 19 18 18 17 17 17 17 16 16 15 14 14 13 14 15 16 18 21 23 25 27 29 30 31 32 33 34 35 36 38 38 39
28 27 25 26 28 30 32 35 36 35 35 36 35 34 34 35 35 36 37 38 40 43 45 46 46 44 41 39 42 45 43 39 35 33 31 30 30 32 33 33 32 29 26 23 23 25 24 23 23 26 25 23 21 21 21 21 20 19 19 18 17 16 16 15 14 14 13 13 13 13 14 16 18 20 22 25 27 30 32 33 34 35 36 36 37 38 39
22 20 16 14 18 25 31 34 34 34 33 33 33 35 36 36 35 36 38 41 43 45 46 46 46 45 42 41 44 47 45 42 39 37 35 34 34 35 37 35 31 27 25 24 25 26 25 23 25 27 27 24 22 22 22 22 23 23 22 21 20 19 18 17 17 17 16 16 15 15 15 16 18 19 21 23 25 28 31 33 35 36 37 37 38 39 40
18 16 14 13 18 25 31 33 34 34 33 32 32 34 37 37 36 38 41 43 45 46 46 46 46 45 44 45 47 48 48 45 42 39 39 39 38 39 40 38 33 29 28 28 28 28 26 24 25 27 29 27 25 24 23 22 23 23 24 24 24 23 22 21 21 21 20 20 20 19 18 18 19 20 22 24 25 27 29 31 34 36 37 38 39 40 41
19 18 21 22 21 22 28 33 34 34 36 37 36 37 39 40 42 45 46 45 44 45 46 47 47 47 47 48 49 48 48 46 42 39 39 41 42 42 41 40 36 33 33 34 33 31 29 27 26 27 29 30 29 27 26 25 24 23 23 24 24 25 24 24 24 23 23 23 22 22 22 21 21 21 23 24 26 27 28 30 32 34 36 37 38 39 40
21 23 26 25 19 17 23 30 33 33 35 38 39 40 43 46 48 50 49 47 47 47 48 49 50 50 50 51 51 49 48 47 45 42 42 44 45 44 43 41 39 37 37 37 35 31 29 28 27 27 30 32 32 30 30 30 28 26 25 24 24 25 25 25 25 25 25 25 24 24 24 23 23 23 23 24 25 27 28 29 30 32 34 36 37 37 38
23 25 26 25 19 15 19 25 29 31 33 35 37 40 43 47 50 52 52 51 52 52 52 53 54 54 53 53 52 51 50 50 48 46 45 46 48 47 46 44 41 40 39 38 36 33 30 30 29 29 30 32 32 32 32 33 33 32 30 29 28 27 27 27 26 26 26 26 26 25 25 25 25 25 24 24 25 26 26 27 28 30 32 33 35 36 37
24 24 24 23 19 15 18 22 25 28 30 32 34 36 40 43 46 49 52 54 56 58 58 58 58 57 56 55 53 51 51 51 50 48 48 49 50 50 48 46 44 42 41 41 40 38 35 33 32 31 31 32 33 32 33 34 35 35 34 33 33 31 31 30 30 29 27 27 26 26 26 26 26 27 26 26 25 25 25 26 26 28 29 31 32 34 35
25 26 25 22 18 17 21 24 24 25 27 28 28 30 33 36 39 43 47 51 55 59 61 62 61 59 58 56 54 53 52 51 50 49 49 50 51 51 49 47 46 45 45 45 44 42 38 35 33 34 34 34 34 34 34 34 36 36 35 35 35 34 33 33 32 31 29 28 27 26 26 25 26 27 28 28 27 26 25 25 26 27 28 29 31 32 34
24 27 25 21 19 21 24 26 25 25 25 26 26 26 28 31 33 37 40 43 46 49 51 53 53 52 51 50 50 51 50 49 49 49 50 51 51 50 50 49 49 47 47 47 47 45 42 38 37 38 40 39 38 36 36 35 36 36 36 35 34 34 33 33 33 32 31 30 29 27 26 26 26 27 28 29 29 28 27 26 26 27 28 29 30 31 33
24 25 25 23 22 22 24 25 26 26 25 25 25 25 26 27 28 30 33 36 37 38 39 40 41 41 41 41 42 42 44 45 47 48 50 50 50 49 50 51 51 50 49 49 48 48 48 47 44 44 44 44 42 40 38 36 36 36 35 34 34 33 32 33 34 34 35 35 34 32 31 30 29 28 28 29 29 30 30 29 28 28 28 29 29 30 32
25 25 25 23 22 22 23 24 25 25 25 25 25 25 25 25 25 26 29 31 33 35 35 36 36 36 36 37 37 38 39 41 44 46 48 49 49 49 50 51 52 52 52 51 49 50 52 54 52 49 47 46 44 42 40 40 39 37 36 35 35 34 34 34 36 37 38 39 39 38 38 36 34 32 31 30 30 30 30 30 31 30 30 29 29 29 30
26 26 25 24 23 24 24 24 24 24 25 25 26 26 26 26 26 26 27 28 30 32 33 34 34 34 34 35 36 37 39 41 43 45 47 48 49 50 50 51 52 53 53 52 50 50 50 51 51 50 50 49 48 46 45 44 44 43 41 40 39 37 37 37 38 39 40 40 39 39 39 38 37 36 35 35 34 34 34 34 33 33 33 33 32 32 31
25 25 25 24 24 25 26 25 24 24 25 26 26 27 28 28 28 28 28 29 30 31 32 32 33 33 33 33 33 34 35 38 40 43 45 46 48 49 49 49 50 51 51 52 51 50 49 48 48 47 47 48 49 49 47 46 45 45 45 45 45 44 43 43 43 43 44 44 43 43 43 42 42 41 41 41 42 42 43 42 41 39 38 38 37 37 36
20 21 21 21 22 24 25 25 24 23 23 24 25 26 27 28 29 29 29 29 30 30 31 31 32 32 32 31 31 30 31 31 33 35 38 40 42 43 44 45 46 47 48 49 50 50 50 49 49 48 47 47 48 48 47 46 45 44 44 45 45 45 45 45 46 47 48 49 50 50 50 50 50 50 49 49 49 49 50 49 48 47 45 44 43 42 41
17 17 17 18 19 20 21 21 21 21 20 20 20 21 23 24 26 26 27 27 28 29 29 30 31 31 31 32 32 32 31 31 31 32 34 35 37 38 40 41 42 44 45 46 48 49 49 50 50 50 51 51 51 50 50 49 48 47 47 47 46 46 45 45 45 46 47 49 51 52 52 53 53 53 53 52 51 51 52 52 51 50 49 48 47 46 46
Wind_Direction
262 262 265 269 272 274 276 278 277 276 274 272 271 271 270 272 275 279 282 281 282 288 292 293 296 298 290 278 267 255 243 236 232 232 233 234 233 232 231 230 230 231 231 231 231 231 231 230 229 228 227 227 225 221 219 218 219 218 217 216 218 220 221 224 228 231 231 230 229 226 223 222 222 222 222 223 225 227 228 229 230 230 231 232 232 233 235
259 259 258 262 266 270 273 278 281 280 275 271 268 268 270 272 273 277 280 278 278 284 291 290 292 300 303 292 279 270 258 245 237 233 232 233 233 233 232 231 231 230 230 231 230 230 230 230 230 229 228 228 226 223 219 218 218 218 216 215 216 219 222 225 229 232 233 233 232 231 228 226 224 224 224 224 225 227 228 228 229 231 232 234 234 235 237
256 257 256 258 263 266 270 277 284 284 278 272 268 267 271 272 271 273 277 278 278 282 286 286 288 295 303 301 291 280 271 260 246 237 233 232 232 233 233 232 232 231 230 230 230 230 230 229 229 230 229 228 227 224 221 218 218 217 216 215 215 217 219 222 225 229 231 231 231 231 230 229 228 227 226 226 225 226 227 228 228 229 231 233 234 236 237
253 255 257 257 259 264 269 275 277 276 274 274 271 268 268 270 270 271 274 275 277 280 283 285 287 291 296 300 297 290 280 271 260 246 238 234 232 232 232 232 232 233 232 231 231 231 230 230 229 229 230 229 228 226 222 220 218 218 217 216 216 216 218 219 220 222 224 225 226 228 230 231 231 231 230 228 227 227 228 228 229 229 230 232 234 235 237
252 255 256 256 257 262 266 267 266 266 271 277 277 270 266 267 268 269 270 273 276 278 281 284 285 287 292 295 296 293 287 278 271 260 248 240 236 233 233 232 232 233 233 233 232 232 231 231 230 230 229 229 229 228 225 222 220 219 219 218 217 217 218 219 220 221 221 223 225 227 229 231 233 233 233 231 229 229 229 229 230 229 230 232 233 233 235
255 256 256 256 256 258 259 257 257 262 268 274 278 275 268 265 264 264 266 271 275 277 278 280 283 285 289 291 291 291 288 283 278 272 262 250 242 237 235 234 233 233 233 234 234 234 233 232 232 231 230 230 230 229 227 225 222 221 220 219 219 219 219 220 222 223 223 225 226 228 230 231 233 234 235 233 232 231 231 231 232 231 230 233 233 233 235
256 256 256 257 257 257 254 250 252 259 265 270 275 279 274 264 257 256 262 269 274 276 275 276 279 282 286 286 286 286 286 285 283 279 274 266 254 244 239 237 235 234 233 234 234 235 235 234 234 232 231 230 230 230 229 228 225 223 222 221 221 221 221 222 223 224 225 226 227 228 230 232 233 234 235 235 233 232 232 233 235 235 234 235 235 235 236
256 256 258 261 261 258 253 249 250 256 262 265 270 276 274 264 255 253 257 264 268 269 271 274 277 280 283 284 283 281 282 283 283 283 282 278 270 258 246 240 237 236 235 234 234 234 235 235 236 235 234 232 231 230 230 229 228 226 225 224 223 222 223 224 225 225 226 227 228 229 230 232 233 234 235 235 235 235 234 234 236 237 238 239 238 238 238
255 256 259 262 262 259 254 252 253 255 257 259 264 269 270 267 261 255 255 258 262 264 267 272 276 279 281 283 283 280 278 278 278 279 282 283 281 273 259 247 239 237 236 236 234 234 234 234 235 236 235 235 234 233 232 231 230 229 227 226 225 225 225 226 227 227 228 229 229 230 230 232 233 234 235 236 236 236 236 236 237 238 240 241 241 241 242
253 254 256 258 260 260 258 256 255 253 252 255 260 263 268 271 269 260 253 254 259 262 264 267 271 277 280 281 283 281 277 275 274 275 278 281 281 280 273 260 247 240 237 236 236 235 234 234 234 235 235 235 235 234 234 233 232 231 230 229 228 227 227 227 228 229 230 231 231 231 232 232 233 234 236 237 237 238 238 238 239 239 241 242 243 245 245
250 251 252 253 254 256 257 258 257 253 250 251 255 259 264 269 270 261 252 251 256 260 262 264 268 272 276 280 284 282 276 274 274 274 274 276 278 280 278 273 262 250 241 237 236 236 236 235 234 234 234 235 235 235 235 234 234 234 233 231 231 230 229 228 228 229 231 232 233 234 233 234 234 235 236 237 238 239 239 239 240 241 242 243 244 246 247
249 249 250 250 252 253 254 255 256 254 250 249 252 256 259 262 263 258 252 250 254 257 261 263 265 267 273 280 282 279 276 274 274 273 273 273 275 277 277 276 273 265 253 244 238 236 237 236 236 235 234 234 234 234 235 235 235 235 235 234 233 232 231 231 230 230 231 232 233 235 235 236 236 236 237 237 238 239 240 241 241 241 243 244 245 247 248
248 248 249 250 250 251 251 251 252 253 251 248 248 250 254 257 257 257 256 253 253 255 259 262 263 265 271 276 276 276 275 274 273 272 272 273 273 274 274 274 273 271 264 255 245 239 237 236 236 236 235 234 234 234 234 234 235 235 236 236 236 235 234 233 232 232 232 232 233 234 236 237 237 238 238 238 239 239 240 241 242 243 243 244 245 247 248
247 248 248 248 249 250 250 248 247 249 250 249 248 249 252 253 254 257 260 257 254 253 256 260 261 264 268 272 273 274 275 273 272 271 271 272 272 271 272 272 272 270 267 262 254 246 241 238 237 237 237 236 235 234 234 234 234 235 235 236 237 237 237 236 235 234 234 233 234 234 235 236 237 239 239 240 240 240 240 241 242 243 244 245 245 246 248
246 247 248 248 248 248 247 246 245 245 247 249 249 248 249 251 254 257 260 261 257 253 253 257 260 262 266 268 270 271 272 271 271 271 272 272 270 269 271 271 271 270 268 265 261 255 248 242 239 238 238 237 237 236 236 235 235 235 236 236 237 238 238 238 238 237 236 236 235 235 236 236 237 239 240 241 242 242 243 243 243 243 245 246 246 247 247
244 246 247 247 246 244 243 244 245 244 244 245 246 246 247 249 253 256 259 261 260 254 251 254 258 260 262 265 266 268 269 269 269 270 272 273 269 267 268 270 270 271 270 269 266 262 255 249 244 240 239 238 238 238 237 237 236 236 236 237 237 237 238 239 239 240 239 239 239 238 237 237 238 239 240 241 242 243 244 245 245 245 246 246 248 249 249
242 244 246 246 245 244 243 245 246 245 243 244 245 245 246 247 251 255 258 260 259 255 251 252 255 257 259 263 264 263 265 268 270 270 271 271 269 266 266 269 270 271 272 272 270 266 260 253 248 244 241 239 238 238 238 238 238 238 237 237 238 238 238 239 239 240 241 241 241 241 240 240 240 240 240 241 242 243 244 245 246 247 247 248 248 250 251
240 242 244 245 245 244 243 244 246 245 243 243 243 243 244 246 249 253 256 257 257 255 251 251 255 257 258 260 261 260 261 267 271 271 270 271 270 268 266 267 269 271 271 271 271 268 262 255 249 245 243 241 239 238 238 239 239 239 239 239 239 239 239 240 240 240 241 241 242 242 243 242 242 242 242 242 243 243 244 245 246 247 248 248 249 250 251
238 240 242 244 244 244 243 243 245 245 243 242 242 242 243 244 247 250 253 254 255 257 253 250 252 256 258 259 259 258 258 264 270 272 272 272 271 270 268 268 269 270 271 271 271 269 264 256 249 245 244 243 241 240 238 238 239 240 240 240 240 240 241 241 241 241 241 241 242 242 243 243 243 243 243 243 243 244 244 245 246 246 247 248 249 250 250
238 238 240 242 243 243 242 242 243 244 243 241 240 240 241 243 245 249 252 251 253 257 256 251 249 253 257 258 257 257 257 259 264 269 272 274 274 272 270 269 270 270 270 272 272 271 266 258 250 245 243 243 242 241 239 238 238 239 240 241 241 241 242 242 242 242 242 242 242 243 243 243 243 243 243 244 244 244 245 245 246 246 247 248 249 250 250
236 238 239 241 242 242 242 241 241 242 242 240 239 239 240 241 244 247 249 250 251 255 256 252 249 251 255 256 257 257 256 258 262 266 270 275 276 275 273 271 270 270 270 272 273 272 267 259 250 244 243 242 242 241 239 238 238 238 239 240 240 240 241 242 243 243 243 243 243 243 243 243 243 243 243 243 243 244 244 245 245 246 246 247 248 249 250
233 235 237 239 240 241 242 241 239 239 240 240 239 238 238 240 243 246 248 249 250 253 255 253 249 249 251 253 255 256 257 259 263 265 268 273 277 277 275 272 270 270 270 271 273 273 268 258 249 244 244 244 242 240 238 237 236 237 238 238 238 238 239 241 243 244 244 244 244 243 243 243 243 242 242 242 242 243 243 244 245 245 246 246 247 248 248
231 232 234 236 238 238 239 240 239 239 240 241 239 239 239 240 241 244 246 248 250 253 255 253 249 248 249 250 251 255 257 260 263 265 267 270 274 276 276 274 271 270 270 271 273 273 268 258 248 245 246 246 244 241 238 235 234 235 236 237 237 237 238 239 241 243 244 245 245 244 243 243 243 242 242 241 241 242 242 243 244 245 245 246 247 247 248
231 231 233 235 236 236 237 238 238 239 241 242 241 240 239 240 240 242 245 248 249 252 255 256 252 249 248 248 249 251 254 258 263 265 267 269 272 274 276 275 272 270 270 270 271 271 266 257 249 247 248 248 247 244 241 237 234 234 234 235 236 236 237 238 239 241 243 244 245 245 244 243 242 242 242 241 241 242 242 243 244 245 246 246 247 247 248
232 232 233 233 234 235 236 237 237 238 240 242 242 241 240 240 241 243 246 248 250 252 255 259 259 253 248 248 249 250 253 259 263 264 266 269 272 274 276 274 270 269 269 269 269 269 264 255 249 248 250 249 249 248 244 239 236 234 234 235 235 236 237 238 239 241 243 244 244 244 244 243 242 242 241 241 241 241 242 243 244 245 246 246 247 248 248
233 232 232 232 233 233 233 235 236 237 239 240 241 241 240 240 241 244 246 248 249 250 253 259 263 258 249 247 250 252 254 259 262 263 264 268 271 275 276 271 267 266 267 267 267 267 261 253 248 249 251 251 251 251 247 241 237 235 235 235 236 237 238 239 240 242 244 244 244 244 244 243 242 241 241 241 241 241 242 243 244 245 245 246 247 248 249
234 233 232 232 232 232 232 232 233 234 236 237 238 238 238 240 241 243 245 246 247 248 252 259 263 259 249 246 251 255 257 257 258 260 263 266 271 275 275 269 264 264 265 264 264 263 257 249 246 249 252 253 252 251 247 241 236 234 234 235 235 237 239 241 243 244 245 245 245 244 243 242 242 241 240 240 240 240 241 242 244 245 246 247 247 248 249
234 233 233 232 231 230 230 230 230 231 232 233 234 235 237 239 242 243 244 245 246 248 253 259 263 258 247 243 246 252 255 255 256 259 263 266 270 273 270 264 261 262 260 258 258 257 251 244 243 248 253 254 253 250 244 239 235 233 233 234 236 238 240 243 245 246 247 247 246 245 244 242 241 240 239 239 240 240 241 242 243 244 245 246 247 248 249
233 232 232 232 231 229 229 229 229 229 229 229 231 233 235 238 242 244 244 245 246 249 254 260 260 254 245 241 242 246 250 253 257 261 263 266 270 270 265 259 259 260 257 254 254 250 242 236 239 247 253 254 252 247 240 236 233 233 233 234 236 238 241 244 246 248 249 249 248 246 244 242 240 239 238 238 239 240 241 242 243 244 245 246 247 248 250
230 230 230 231 231 229 228 228 228 228 229 229 230 232 233 236 239 242 244 246 248 252 256 258 255 248 244 243 243 245 248 253 258 261 262 265 268 267 261 258 262 262 258 256 253 245 235 229 234 245 251 251 248 243 238 235 234 234 235 235 236 239 242 244 246 248 248 249 248 246 244 242 240 238 238 238 239 240 241 242 243 244 245 246 247 249 250
228 229 230 230 231 231 230 230 230 230 231 231 232 234 235 236 238 240 243 246 250 254 256 254 248 243 242 242 242 245 250 253 256 259 261 264 265 261 258 260 265 264 260 258 252 240 227 224 232 241 245 246 245 241 239 237 237 237 237 237 238 241 244 245 246 247 247 247 246 245 243 241 240 239 238 239 239 241 241 242 243 244 245 246 247 248 250
228 229 230 231 232 233 233 234 234 234 235 235 236 237 238 239 240 242 245 247 250 252 251 250 246 243 241 243 245 247 250 253 256 259 261 261 257 254 255 263 267 265 260 254 245 232 222 224 232 236 238 241 243 242 241 242 242 241 241 241 242 244 246 247 247 246 246 245 245 244 243 242 241 241 240 240 241 242 242 243 243 244 245 246 248 249 250
228 230 232 233 234 236 237 237 237 237 238 238 239 240 241 242 243 244 245 246 246 244 241 243 246 244 242 243 246 247 249 253 256 256 254 251 248 248 254 264 268 263 254 243 232 223 222 228 231 231 233 238 243 246 249 249 247 246 246 245 246 247 247 248 248 247 247 247 246 245 245 244 244 243 243 243 243 243 243 244 244 245 246 247 248 249 249
228 230 232 233 234 236 238 239 239 239 240 241 240 240 241 241 242 242 241 240 238 233 228 228 233 237 237 238 241 245 248 250 248 244 243 243 242 243 250 259 258 250 239 230 225 223 225 230 231 229 230 235 242 249 253 252 250 250 249 248 248 248 249 249 249 249 249 249 249 248 248 248 248 247 247 246 246 245 245 244 244 245 246 246 247 248 249
227 228 229 229 230 233 236 236 234 235 236 238 238 238 238 238 237 236 235 232 229 226 222 219 219 225 233 238 243 246 244 238 234 237 244 244 239 238 244 248 244 235 227 224 224 226 231 233 232 229 229 233 240 246 250 251 251 251 249 248 248 248 248 249 249 249 249 250 251 252 253 254 254 253 252 251 250 248 247 246 245 245 246 246 246 247 248
223 223 223 221 221 225 230 229 226 226 229 232 234 234 233 232 231 229 226 223 221 222 223 223 223 227 234 241 243 239 231 224 226 236 243 240 234 234 237 237 234 233 232 232 237 243 242 238 233 230 230 233 237 240 243 246 249 249 249 249 248 246 246 245 245 246 247 249 251 254 256 257 258 259 258 257 255 253 251 250 248 247 247 248 248 249 250
220 220 221 219 217 220 225 225 224 225 228 230 231 230 227 224 221 220 219 217 216 217 220 223 225 228 232 236 232 223 218 218 224 232 237 236 232 230 229 228 229 231 231 235 245 254 253 243 234 231 232 234 235 234 236 241 246 249 251 252 250 247 244 242 242 243 247 251 254 258 259 260 260 261 261 261 260 259 257 255 253 251 250 250 250 251 252
218 219 220 221 222 225 227 227 225 225 226 227 225 221 217 216 215 215 216 217 216 216 219 222 225 227 230 228 221 216 216 219 223 228 233 235 232 229 226 225 225 227 229 236 248 254 252 247 240 234 231 234 236 234 234 237 242 247 251 251 249 245 243 242 243 246 250 255 260 265 269 271 271 270 269 267 264 262 260 258 257 255 254 253 253 253 254
211 208 208 220 233 235 233 229 226 223 223 223 221 215 211 211 213 215 218 218 218 219 222 225 228 232 232 225 217 215 218 220 222 227 235 238 234 228 226 226 228 232 237 245 251 252 250 249 243 235 231 233 236 235 233 235 239 242 244 245 246 246 246 249 252 254 255 258 261 267 272 277 280 280 279 277 273 267 263 260 258 257 256 255 255 255 255
183 175 177 204 235 243 238 231 225 221 218 217 217 215 213 211 210 214 219 220 219 219 223 226 228 231 231 225 219 217 219 221 225 232 238 238 234 228 226 228 234 241 245 248 250 248 248 249 245 237 233 234 236 234 232 233 236 239 242 244 246 250 253 257 259 261 261 262 263 265 269 274 279 281 282 281 279 275 270 265 260 258 256 256 256 256 256
166 173 186 199 218 236 236 230 225 220 216 213 212 212 210 208 207 211 216 219 219 219 222 224 225 226 227 228 227 226 225 228 233 239 239 236 232 229 227 228 233 240 245 246 245 245 249 251 248 241 237 237 237 237 236 236 237 241 245 249 251 254 257 259 260 262 264 265 266 267 269 271 275 279 282 282 280 277 274 270 265 260 257 255 255 255 256
181 195 201 202 208 229 236 229 224 222 220 216 214 212 209 207 208 211 214 216 217 218 221 224 226 227 228 230 233 235 236 238 241 243 240 236 232 229 225 225 228 235 240 241 241 244 250 253 250 245 241 238 239 241 242 241 243 246 251 255 258 259 260 261 261 262 264 266 267 269 270 271 272 275 278 281 281 278 276 273 269 264 260 257 255 255 255
194 200 202 199 200 220 237 233 225 221 220 218 216 215 212 211 212 215 216 216 217 218 220 223 227 230 233 235 237 239 241 243 244 243 238 234 231 227 223 223 227 233 236 236 238 243 250 253 251 247 241 238 240 244 247 249 250 251 254 258 262 262 261 261 262 263 265 266 267 269 270 271 271 271 274 277 280 278 276 274 272 269 265 261 258 257 256
199 198 196 190 189 209 235 237 227 220 218 216 215 214 214 213 214 217 218 218 217 218 219 222 226 230 235 239 241 242 241 241 241 238 233 229 227 224 221 223 228 233 233 233 236 242 247 251 252 250 244 239 239 243 247 252 255 256 257 260 263 264 263 263 264 266 267 267 266 267 269 271 271 271 271 274 278 279 277 275 273 271 269 267 263 261 259
194 191 189 186 189 210 229 232 225 219 216 215 214 214 215 215 216 217 219 220 220 220 222 224 227 230 234 238 241 242 240 237 235 232 228 225 224 222 222 224 229 231 230 231 236 241 245 248 251 251 249 244 240 239 241 246 251 254 257 259 262 263 264 264 264 266 267 267 265 266 268 270 272 271 270 271 275 278 279 278 276 274 272 270 267 265 263
181 182 184 188 197 212 223 225 222 218 217 217 218 219 219 218 218 218 219 220 221 222 224 225 228 230 233 235 237 238 236 233 230 227 224 222 222 222 223 226 229 229 229 231 235 240 242 244 245 246 247 247 244 240 239 241 245 249 252 254 256 259 262 264 264 264 265 266 265 265 265 268 270 272 272 272 273 274 276 279 280 278 276 273 271 269 268
178 184 190 197 206 215 218 218 216 216 217 218 219 219 217 215 214 214 213 214 215 217 219 221 223 227 230 233 234 234 232 230 227 225 223 222 223 224 225 227 229 229 230 232 236 240 242 242 241 241 243 245 246 245 244 245 249 252 253 254 255 258 261 264 265 266 267 268 268 267 266 267 269 270 272 274 275 275 275 277 279 281 281 279 276 274 272
186 193 201 209 216 218 214 210 210 212 214 215 215 215 214 213 212 211 210 210 212 214 217 220 223 227 230 233 234 233 232 230 228 226 226 227 227 227 227 228 230 231 233 235 238 240 241 242 242 243 244 247 249 250 249 250 252 254 255 255 256 259 261 264 266 268 269 270 270 271 271 271 271 271 273 275 278 279 279 280 280 282 282 282 282 281 279
197 203 212 221 224 219 212 209 210 212 213 214 216 217 218 218 218 217 217 217 219 221 223 226 229 231 233 235 236 237 236 235 233 232 232 232 232 232 232 232 233 234 236 237 238 238 240 242 244 245 247 248 251 253 254 254 254 255 256 256 256 257 258 261 263 265 267 268 269 270 272 272 272 272 274 275 277 280 283 284 284 283 283 282 282 282 282
209 215 222 226 224 218 214 214 216 217 218 220 222 223 224 225 226 226 227 228 228 230 231 233 234 235 235 235 236 238 239 239 238 237 237 237 236 236 236 236 236 238 239 240 241 241 242 242 244 245 247 249 252 254 256 257 258 258 259 259 259 260 260 260 260 261 262 263 264 265 267 269 269 270 271 272 274 277 280 282 283 283 283 283 282 282 282
215 218 220 219 217 215 215 216 217 218 221 223 225 227 229 230 231 232 233 234 235 235 235 234 234 233 232 231 231 233 235 236 236 235 235 235 235 236 236 237 238 238 240 242 243 244 246 247 247 246 247 248 251 252 254 256 258 259 260 260 261 262 263 263 262 261 261 261 261 262 264 265 266 267 268 269 271 274 276 278 279 280 281 281 282 283 283
214 214 214 213 212 211 211 212 211 212 215 218 221 223 225 227 228 230 231 232 233 234 234 233 232 231 230 230 230 232 233 233 232 231 231 233 234 235 236 238 239 240 241 243 245 246 248 250 251 251 250 250 251 252 253 255 256 258 258 259 258 259 260 261 262 261 260 260 261 262 264 265 266 267 268 269 269 271 273 275 277 278 278 279 280 280 281
Height
10826 10827 10828 10829 10830 10830 10830 10831 10832 10833 10833 10833 10834 10834 10833 10833 10833 10833 10834 10835 10834 10835 10836 10836 10835 10835 10835 10835 10836 10836 10837 10837 10839 10840 10842 10843 10845 10846 10848 10850 10853 10856 10859 10861 10864 10867 10870 10873 10877 10881 10885 10888 10892 10895 10899 10901 10904 10907 10910 10913 10916 10919 10922 10924 10926 10928 10930 10931 10933 10935 10937 10939 10941 10943 10945 10946 10948 10950 10951 10953 10954 10955 10957 10958 10959 10960 10962
10821 10823 10824 10825 10825 10826 10827 10827 10828 10829 10829 10829 10830 10830 10830 10830 10830 10830 10830 10831 10831 10832 10832 10833 10833 10833 10833 10833 10833 10833 10834 10834 10835 10836 10837 10838 10840 10841 10843 10845 10847 10850 10852 10855 10858 10861 10864 10867 10870 10874 10878 10881 10885 10889 10892 10895 10897 10901 10904 10907 10911 10914 10917 10919 10921 10924 10926 10927 10929 10931 10933 10935 10937 10939 10941 10942 10944 10946 10947 10949 10950 10952 10953 10954 10956 10957 10958
10817 10818 10820 10821 10821 10822 10823 10823 10824 10824 10825 10825 10826 10826 10827 10827 10827 10827 10826 10826 10827 10828 10829 10830 10830 10831 10830 10830 10830 10830 10831 10831 10831 10832 10832 10833 10835 10836 10838 10840 10842 10844 10847 10849 10852 10855 10858 10861 10864 10867 10871 10875 10878 10882 10885 10888 10891 10894 10898 10901 10904 10907 10911 10913 10916 10918 10921 10923 10925 10927 10929 10931 10933 10935 10936 10938 10940 10941 10943 10944 10946 10948 10949 10951 10952 10953 10955
10813 10813 10814 10816 10817 10818 10819 10820 10820 10819 10820 10821 10822 10823 10823 10823 10823 10824 10823 10822 10823 10825 10826 10826 10827 10827 10828 10828 10827 10828 10828 10828 10828 10828 10828 10829 10830 10831 10833 10835 10837 10839 10842 10844 10847 10850 10852 10855 10858 10861 10864 10868 10871 10875 10878 10881 10885 10888 10891 10894 10897 10900 10904 10906 10909 10911 10914 10916 10919 10921 10923 10925 10928 10930 10932 10933 10935 10937 10939 10940 10942 10944 10946 10947 10949 10950 10951
10808 10809 10809 10810 10812 10814 10816 10816 10815 10814 10815 10816 10818 10819 10819 10820 10820 10820 10819 10818 10820 10821 10822 10822 10823 10824 10825 10825 10825 10825 10825 10825 10825 10825 10825 10825 10825 10826 10828 10830 10832 10834 10837 10839 10842 10845 10847 10850 10853 10856 10858 10861 10865 10868 10871 10875 10878 10881 10884 10887 10891 10894 10896 10899 10902 10904 10906 10909 10912 10915 10917 10919 10922 10924 10926 10928 10930 10932 10934 10936 10937 10940 10942 10944 10945 10946 10948
10803 10804 10803 10804 10807 10810 10812 10812 10809 10810 10812 10812 10814 10815 10815 10816 10817 10816 10814 10815 10816 10817 10818 10819 10820 10821 10822 10822 10822 10822 10822 10822 10822 10821 10821 10821 10822 10822 10823 10825 10827 10829 10832 10834 10837 10840 10842 10845 10848 10850 10853 10855 10858 10861 10865 10868 10871 10874 10877 10881 10884 10887 10890 10892 10895 10897 10900 10902 10905 10908 10911 10913 10915 10917 10920 10922 10924 10926 10928 10930 10932 10934 10936 10938 10940 10942 10944
10798 10799 10796 10797 10802 10805 10807 10806 10804 10805 10808 10808 10809 10810 10811 10812 10813 10812 10811 10812 10812 10812 10813 10815 10817 10818 10819 10819 10819 10819 10819 10819 10818 10818 10818 10818 10818 10818 10819 10820 10822 10824 10826 10829 10831 10834 10837 10840 10842 10845 10847 10850 10852 10855 10858 10861 10864 10867 10870 10874 10877 10880 10883 10885 10888 10890 10893 10896 10899 10901 10904 10906 10909 10911 10913 10916 10918 10920 10922 10924 10926 10928 10930 10932 10934 10936 10938
10792 10793 10791 10793 10797 10799 10800 10800 10799 10801 10803 10804 10805 10806 10806 10807 10808 10808 10808 10809 10809 10807 10807 10810 10813 10814 10815 10816 10816 10817 10816 10816 10815 10815 10814 10815 10815 10815 10815 10816 10817 10819 10821 10823 10825 10828 10831 10833 10836 10838 10841 10844 10847 10849 10852 10854 10857 10860 10863 10867 10870 10873 10876 10879 10881 10884 10886 10889 10892 10894 10897 10899 10902 10904 10907 10909 10912 10914 10916 10918 10920 10922 10924 10926 10928 10930 10932
10785 10787 10787 10788 10791 10792 10793 10794 10795 10797 10798 10799 10800 10802 10802 10802 10803 10804 10804 10805 10805 10804 10803 10805 10808 10810 10812 10812 10813 10814 10813 10813 10813 10812 10811 10811 10811 10811 10811 10811 10812 10814 10815 10817 10819 10822 10824 10826 10829 10832 10834 10838 10840 10843 10845 10848 10850 10853 10856 10859 10863 10866 10869 10871 10874 10877 10879 10882 10884 10887 10890 10892 10895 10898 10900 10902 10905 10907 10910 10912 10913 10915 10917 10919 10921 10923 10925
10778 10780 10781 10783 10785 10785 10787 10789 10790 10792 10793 10794 10795 10797 10797 10798 10798 10799 10800 10801 10801 10800 10800 10801 10803 10805 10807 10808 10809 10810 10810 10809 10809 10809 10808 10808 10807 10807 10807 10807 10808 10808 10810 10811 10813 10815 10817 10819 10822 10824 10827 10830 10833 10836 10839 10841 10843 10846 10849 10852 10855 10858 10861 10864 10866 10869 10872 10874 10877 10880 10883 10886 10888 10891 10893 10896 10898 10900 10903 10905 10907 10909 10911 10912 10914 10916 10918
10771 10773 10774 10777 10778 10778 10782 10785 10785 10786 10788 10789 10790 10792 10793 10794 10794 10795 10795 10796 10795 10796 10797 10797 10799 10800 10802 10804 10805 10806 10806 10806 10806 10805 10805 10804 10804 10804 10803 10803 10804 10804 10805 10806 10807 10809 10811 10813 10815 10817 10820 10822 10825 10828 10831 10834 10836 10839 10841 10844 10846 10849 10852 10855 10858 10861 10863 10866 10869 10872 10875 10878 10881 10884 10886 10888 10891 10893 10895 10897 10899 10902 10903 10905 10907 10908 10910
10763 10765 10767 10770 10772 10772 10776 10779 10779 10780 10782 10783 10785 10787 10788 10789 10789 10789 10790 10791 10791 10791 10792 10794 10795 10795 10797 10799 10801 10801 10802 10802 10802 10801 10801 10801 10801 10800 10800 10800 10800 10800 10801 10801 10802 10803 10805 10806 10808 10810 10812 10814 10817 10820 10823 10826 10828 10831 10833 10835 10838 10841 10843 10846 10849 10852 10855 10858 10861 10864 10867 10870 10873 10875 10878 10881 10883 10885 10887 10889 10892 10894 10896 10898 10900 10901 10903
10754 10757 10759 10762 10764 10766 10769 10772 10773 10774 10776 10778 10780 10781 10782 10784 10784 10784 10785 10786 10786 10786 10787 10788 10789 10791 10793 10795 10796 10796 10797 10798 10798 10797 10797 10797 10797 10797 10796 10796 10796 10796 10796 10796 10797 10797 10798 10800 10801 10803 10805 10807 10809 10812 10814 10817 10820 10822 10825 10827 10830 10832 10835 10837 10840 10843 10846 10850 10853 10855 10858 10861 10864 10867 10869 10872 10874 10877 10879 10881 10884 10886 10888 10890 10892 10893 10895
10744 10747 10750 10754 10757 10761 10763 10764 10766 10768 10770 10772 10774 10775 10777 10778 10778 10779 10780 10780 10780 10782 10782 10783 10784 10786 10788 10790 10791 10791 10792 10793 10793 10793 10793 10793 10793 10792 10792 10792 10792 10792 10791 10791 10791 10792 10793 10794 10795 10796 10798 10800 10802 10805 10807 10810 10812 10815 10817 10820 10822 10825 10827 10829 10832 10835 10838 10841 10844 10847 10850 10852 10855 10858 10861 10863 10866 10868 10871 10873 10876 10878 10880 10882 10884 10886 10888
10734 10737 10741 10746 10752 10755 10755 10755 10759 10763 10764 10766 10768 10769 10771 10772 10772 10774 10775 10774 10775 10776 10777 10778 10779 10781 10783 10785 10785 10786 10787 10788 10788 10789 10788 10788 10788 10788 10788 10788 10788 10787 10787 10787 10786 10787 10788 10789 10789 10790 10792 10794 10796 10798 10800 10803 10805 10808 10810 10813 10815 10817 10820 10822 10825 10827 10830 10833 10835 10838 10841 10844 10847 10850 10853 10855 10857 10860 10862 10865 10867 10869 10871 10873 10875 10877 10880
10726 10729 10733 10738 10744 10746 10745 10746 10751 10757 10758 10759 10760 10762 10764 10766 10767 10768 10769 10769 10770 10771 10772 10773 10774 10775 10777 10779 10780 10781 10782 10782 10783 10784 10784 10784 10784 10784 10784 10783 10783 10783 10782 10782 10782 10782 10783 10783 10784 10785 10786 10787 10789 10791 10793 10796 10798 10800 10803 10805 10808 10810 10812 10815 10818 10820 10823 10825 10828 10830 10833 10836 10839 10842 10845 10847 10850 10852 10854 10856 10858 10861 10863 10865 10867 10869 10871
10718 10721 10724 10729 10734 10737 10738 10740 10744 10749 10752 10753 10754 10756 10758 10760 10761 10762 10763 10764 10765 10766 10767 10767 10768 10770 10772 10773 10775 10776 10777 10777 10778 10779 10779 10779 10779 10780 10779 10779 10779 10778 10778 10778 10778 10777 10777 10778 10778 10779 10780 10781 10783 10785 10787 10789 10791 10793 10795 10798 10800 10802 10805 10808 10810 10813 10815 10817 10820 10823 10825 10828 10831 10834 10837 10839 10841 10843 10845 10848 10850 10852 10854 10857 10859 10861 10862
10711 10713 10716 10720 10726 10730 10732 10733 10736 10741 10744 10746 10748 10750 10752 10754 10756 10757 10757 10758 10759 10760 10762 10762 10763 10764 10767 10768 10770 10771 10772 10773 10773 10774 10774 10775 10775 10775 10775 10774 10774 10774 10773 10773 10773 10773 10772 10772 10772 10773 10774 10775 10777 10779 10781 10783 10784 10786 10788 10791 10793 10795 10797 10800 10802 10805 10807 10810 10812 10815 10817 10820 10823 10826 10828 10830 10833 10835 10837 10839 10841 10843 10845 10847 10850 10852 10854
10703 10706 10708 10712 10717 10722 10724 10726 10729 10733 10736 10739 10741 10743 10746 10748 10750 10751 10752 10753 10754 10755 10756 10757 10758 10759 10761 10763 10765 10766 10768 10769 10769 10769 10769 10770 10770 10770 10770 10770 10769 10769 10769 10769 10768 10768 10767 10767 10767 10768 10769 10770 10772 10773 10775 10777 10778 10780 10782 10784 10786 10788 10790 10793 10795 10797 10800 10802 10805 10807 10810 10812 10815 10817 10820 10822 10824 10826 10828 10830 10832 10834 10836 10838 10840 10842 10845
10695 10698 10701 10704 10708 10713 10717 10719 10722 10725 10729 10732 10734 10737 10739 10742 10743 10745 10746 10747 10748 10749 10750 10752 10753 10754 10756 10758 10759 10761 10763 10764 10765 10764 10765 10765 10766 10766 10765 10765 10765 10764 10764 10764 10763 10763 10762 10761 10762 10762 10764 10765 10766 10768 10769 10771 10773 10774 10776 10778 10780 10782 10784 10786 10788 10790 10793 10795 10797 10800 10802 10804 10807 10809 10811 10813 10816 10817 10819 10821 10823 10826 10828 10830 10831 10833 10835
10687 10690 10694 10697 10700 10705 10709 10713 10716 10718 10721 10724 10727 10730 10733 10735 10737 10739 10741 10741 10743 10744 10745 10746 10747 10748 10750 10752 10754 10756 10758 10759 10760 10760 10760 10760 10761 10761 10760 10760 10760 10760 10760 10759 10759 10758 10757 10756 10757 10758 10759 10760 10761 10762 10764 10765 10767 10769 10771 10772 10774 10776 10778 10780 10782 10784 10786 10788 10790 10792 10794 10796 10799 10801 10803 10805 10807 10809 10811 10813 10815 10817 10819 10821 10823 10825 10826
10678 10682 10686 10689 10692 10697 10701 10705 10708 10710 10713 10716 10720 10723 10726 10729 10731 10733 10735 10736 10737 10739 10740 10741 10741 10743 10745 10747 10748 10750 10752 10754 10755 10755 10756 10756 10756 10756 10755 10755 10755 10755 10755 10755 10754 10754 10752 10752 10752 10753 10754 10755 10756 10757 10759 10760 10762 10764 10765 10767 10769 10770 10772 10774 10776 10778 10780 10782 10784 10785 10787 10789 10791 10793 10795 10797 10799 10801 10803 10805 10807 10809 10811 10813 10815 10817 10818
10670 10674 10677 10681 10685 10690 10693 10697 10701 10703 10706 10709 10712 10716 10719 10722 10725 10727 10728 10730 10731 10733 10734 10735 10736 10737 10739 10741 10743 10745 10747 10749 10750 10750 10751 10751 10751 10751 10751 10750 10750 10751 10751 10751 10750 10749 10748 10748 10748 10749 10750 10751 10751 10752 10754 10755 10757 10759 10760 10762 10763 10765 10767 10768 10770 10772 10774 10776 10777 10779 10780 10782 10784 10786 10788 10790 10792 10793 10795 10797 10799 10801 10803 10805 10807 10809 10811
10663 10666 10670 10675 10679 10683 10686 10690 10694 10696 10699 10702 10706 10709 10713 10715 10718 10720 10722 10724 10725 10727 10728 10730 10731 10732 10733 10736 10738 10740 10742 10744 10745 10745 10746 10746 10746 10746 10746 10746 10746 10746 10746 10746 10746 10745 10744 10743 10744 10745 10745 10746 10747 10748 10749 10751 10752 10754 10756 10757 10759 10760 10761 10763 10765 10767 10768 10770 10771 10773 10774 10775 10777 10779 10781 10783 10785 10787 10788 10790 10792 10794 10796 10797 10799 10801 10803
10654 10659 10665 10669 10673 10676 10680 10684 10687 10690 10693 10696 10699 10703 10706 10709 10711 10714 10716 10718 10719 10721 10722 10724 10725 10727 10729 10731 10734 10736 10737 10739 10740 10740 10740 10741 10741 10741 10741 10741 10741 10741 10741 10741 10741 10740 10740 10739 10740 10741 10742 10743 10744 10744 10745 10747 10748 10750 10751 10753 10754 10755 10757 10758 10760 10761 10763 10764 10766 10767 10768 10770 10771 10773 10775 10777 10779 10780 10782 10784 10785 10787 10789 10790 10792 10794 10796
10647 10653 10659 10662 10665 10669 10674 10677 10680 10684 10686 10689 10693 10697 10699 10702 10704 10707 10710 10712 10713 10715 10717 10718 10720 10722 10725 10727 10729 10731 10733 10734 10735 10735 10735 10736 10736 10736 10736 10735 10735 10735 10736 10736 10736 10736 10735 10735 10736 10737 10738 10739 10740 10741 10742 10743 10745 10746 10747 10749 10750 10751 10752 10753 10755 10756 10758 10759 10760 10762 10763 10764 10766 10767 10769 10771 10773 10775 10776 10778 10779 10781 10783 10784 10786 10788 10789
10641 10647 10651 10654 10658 10662 10666 10670 10673 10677 10680 10683 10687 10690 10692 10695 10698 10700 10704 10706 10708 10710 10712 10713 10715 10718 10721 10722 10725 10727 10727 10729 10730 10730 10731 10731 10731 10731 10730 10730 10730 10730 10730 10730 10731 10731 10731 10731 10732 10733 10735 10736 10737 10738 10739 10740 10741 10742 10744 10745 10746 10747 10748 10749 10750 10751 10752 10754 10755 10756 10758 10759 10761 10762 10764 10766 10768 10769 10771 10772 10774 10775 10777 10778 10780 10782 10783
10635 10640 10643 10646 10650 10654 10658 10662 10666 10670 10674 10677 10680 10683 10686 10689 10692 10695 10698 10700 10702 10704 10706 10708 10711 10714 10715 10717 10720 10722 10722 10723 10724 10725 10726 10726 10725 10725 10724 10724 10725 10724 10724 10725 10725 10726 10726 10727 10728 10730 10731 10732 10733 10734 10735 10736 10738 10739 10740 10741 10742 10743 10744 10745 10745 10746 10747 10748 10750 10751 10753 10754 10756 10758 10759 10761 10762 10764 10765 10767 10768 10770 10771 10773 10774 10776 10777
10627 10632 10634 10636 10641 10646 10650 10654 10658 10663 10667 10670 10673 10677 10681 10684 10686 10689 10692 10694 10696 10698 10700 10702 10705 10707 10708 10711 10714 10716 10717 10717 10719 10720 10721 10720 10720 10720 10720 10720 10720 10720 10720 10720 10720 10720 10721 10723 10725 10726 10727 10728 10729 10730 10732 10733 10734 10736 10737 10738 10739 10739 10740 10740 10741 10741 10742 10744 10745 10746 10748 10749 10751 10753 10754 10755 10757 10758 10760 10762 10763 10765 10766 10768 10769 10771 10772
10617 10620 10623 10626 10632 10638 10642 10647 10651 10656 10660 10664 10667 10670 10674 10678 10681 10683 10685 10687 10690 10692 10694 10697 10699 10701 10703 10706 10709 10710 10711 10713 10714 10715 10715 10715 10715 10716 10716 10716 10716 10716 10716 10716 10716 10717 10717 10719 10721 10722 10723 10724 10725 10727 10728 10730 10731 10733 10733 10734 10735 10735 10736 10736 10737 10737 10738 10739 10740 10741 10743 10744 10746 10748 10749 10750 10752 10753 10755 10756 10758 10759 10761 10762 10764 10765 10766
10607 10610 10613 10619 10624 10630 10635 10641 10646 10650 10655 10659 10661 10664 10667 10672 10675 10677 10679 10681 10683 10685 10688 10691 10694 10696 10698 10700 10702 10704 10706 10708 10709 10709 10710 10710 10711 10712 10712 10713 10712 10711 10711 10712 10713 10714 10715 10715 10717 10718 10719 10720 10722 10723 10725 10727 10728 10729 10730 10731 10731 10731 10732 10732 10733 10733 10734 10735 10736 10737 10738 10740 10741 10743 10744 10746 10747 10748 10750 10751 10752 10754 10755 10757 10758 10759 10760
10599 10602 10608 10614 10620 10626 10632 10637 10642 10646 10650 10653 10656 10657 10661 10665 10668 10671 10673 10675 10677 10679 10683 10686 10688 10690 10691 10693 10695 10698 10700 10702 10703 10704 10704 10705 10707 10708 10709 10709 10707 10706 10706 10708 10710 10711 10711 10712 10713 10714 10715 10717 10718 10720 10722 10724 10725 10726 10726 10727 10727 10728 10728 10728 10729 10729 10730 10730 10731 10733 10734 10735 10737 10738 10740 10741 10742 10744 10745 10746 10748 10749 10750 10751 10752 10753 10754
10594 10599 10606 10613 10619 10625 10629 10633 10637 10641 10645 10647 10649 10651 10653 10657 10660 10663 10665 10668 10671 10674 10678 10681 10682 10683 10685 10687 10689 10692 10694 10696 10697 10697 10699 10701 10703 10704 10705 10704 10703 10702 10703 10704 10706 10707 10709 10710 10710 10711 10711 10713 10715 10717 10719 10720 10722 10722 10723 10724 10724 10724 10725 10725 10725 10726 10726 10727 10728 10729 10730 10731 10732 10734 10735 10737 10738 10739 10740 10741 10743 10744 10745 10746 10747 10748 10749
10594 10600 10606 10612 10618 10621 10624 10627 10631 10635 10637 10639 10641 10642 10645 10648 10652 10655 10658 10661 10664 10669 10673 10676 10677 10678 10679 10681 10684 10686 10688 10690 10690 10692 10694 10697 10699 10700 10700 10700 10699 10699 10700 10702 10703 10705 10706 10707 10708 10708 10708 10709 10711 10713 10715 10717 10718 10719 10720 10721 10721 10721 10722 10722 10722 10723 10723 10723 10724 10725 10726 10727 10728 10730 10731 10732 10733 10734 10735 10737 10738 10739 10740 10741 10742 10743 10743
10593 10599 10604 10609 10614 10617 10619 10622 10625 10627 10629 10631 10633 10635 10638 10641 10645 10648 10652 10655 10659 10664 10668 10671 10673 10673 10674 10676 10679 10682 10684 10685 10686 10688 10691 10693 10694 10695 10696 10697 10697 10697 10698 10699 10701 10702 10703 10704 10705 10705 10705 10706 10707 10709 10711 10713 10715 10716 10717 10717 10718 10718 10718 10719 10719 10719 10720 10720 10720 10721 10722 10723 10724 10726 10727 10728 10729 10730 10731 10732 10733 10734 10735 10736 10737 10737 10738
10589 10594 10599 10604 10608 10612 10614 10616 10618 10620 10622 10624 10626 10629 10632 10636 10639 10643 10647 10651 10655 10659 10663 10666 10668 10669 10671 10673 10675 10677 10679 10681 10682 10684 10686 10688 10689 10690 10692 10693 10694 10695 10696 10697 10699 10700 10701 10701 10702 10702 10702 10702 10704 10705 10708 10710 10711 10713 10713 10714 10715 10715 10715 10715 10716 10716 10716 10717 10717 10718 10718 10719 10720 10721 10722 10724 10725 10726 10726 10727 10728 10729 10730 10731 10731 10732 10733
10586 10591 10596 10600 10604 10608 10609 10611 10613 10615 10617 10619 10621 10624 10627 10631 10635 10638 10642 10647 10650 10653 10657 10660 10662 10665 10667 10669 10670 10671 10673 10675 10677 10679 10681 10683 10684 10686 10687 10689 10690 10691 10692 10694 10696 10697 10697 10698 10699 10699 10700 10700 10701 10702 10704 10706 10708 10709 10710 10711 10712 10712 10712 10712 10713 10713 10713 10713 10714 10714 10715 10715 10716 10717 10718 10719 10720 10721 10722 10723 10723 10724 10725 10725 10726 10727 10728
10585 10590 10594 10598 10602 10605 10606 10607 10609 10611 10613 10614 10617 10620 10623 10627 10631 10635 10639 10643 10646 10648 10650 10653 10656 10659 10662 10664 10665 10667 10670 10672 10673 10675 10677 10678 10680 10681 10683 10685 10686 10688 10689 10690 10692 10693 10694 10695 10696 10696 10697 10698 10699 10700 10701 10703 10705 10707 10708 10709 10709 10709 10710 10710 10710 10710 10710 10710 10710 10710 10711 10712 10713 10713 10714 10714 10715 10716 10717 10717 10718 10719 10720 10720 10721 10722 10723
10583 10588 10592 10597 10600 10602 10603 10604 10606 10608 10610 10611 10613 10616 10620 10623 10627 10632 10635 10637 10640 10643 10645 10647 10650 10653 10656 10658 10660 10663 10665 10668 10670 10671 10672 10673 10675 10677 10679 10681 10684 10685 10687 10688 10689 10690 10691 10692 10693 10693 10694 10696 10697 10697 10699 10700 10702 10704 10705 10706 10706 10707 10707 10707 10707 10707 10707 10707 10707 10707 10708 10708 10709 10709 10710 10710 10711 10711 10711 10712 10713 10713 10714 10715 10716 10716 10717
10581 10584 10589 10594 10597 10599 10599 10600 10602 10605 10608 10609 10611 10614 10618 10622 10626 10629 10631 10632 10634 10637 10640 10642 10645 10648 10651 10654 10656 10659 10661 10663 10665 10666 10667 10669 10671 10673 10676 10679 10681 10683 10684 10685 10687 10687 10688 10689 10690 10690 10691 10693 10694 10695 10696 10697 10699 10700 10702 10702 10703 10704 10704 10704 10704 10704 10704 10704 10704 10704 10704 10705 10705 10705 10706 10706 10706 10707 10707 10707 10708 10708 10709 10709 10710 10710 10711
10577 10580 10584 10588 10591 10593 10593 10595 10597 10600 10603 10605 10607 10611 10614 10619 10622 10624 10625 10627 10629 10632 10635 10638 10640 10643 10646 10649 10652 10654 10656 10658 10660 10662 10663 10665 10667 10669 10672 10675 10678 10679 10680 10681 10683 10684 10685 10686 10687 10687 10688 10689 10690 10692 10693 10694 10695 10697 10698 10699 10700 10700 10700 10701 10701 10701 10701 10701 10701 10701 10701 10701 10702 10702 10702 10702 10702 10702 10702 10703 10703 10703 10704 10704 10704 10705 10705
10573 10576 10580 10583 10586 10588 10589 10590 10592 10595 10597 10600 10603 10606 10610 10613 10616 10619 10621 10623 10626 10628 10631 10633 10635 10638 10641 10644 10646 10649 10651 10653 10655 10657 10659 10660 10663 10666 10669 10671 10673 10675 10676 10677 10679 10681 10682 10682 10683 10684 10684 10685 10686 10687 10689 10690 10691 10693 10695 10696 10696 10697 10697 10697 10697 10697 10697 10697 10697 10697 10698 10698 10698 10698 10698 10698 10698 10698 10698 10698 10698 10698 10698 10699 10699 10699 10700
10570 10574 10577 10580 10583 10585 10586 10586 10588 10590 10593 10595 10598 10601 10604 10608 10611 10614 10617 10620 10622 10625 10627 10629 10631 10634 10636 10639 10642 10644 10646 10648 10650 10652 10654 10655 10658 10661 10663 10666 10668 10670 10672 10674 10675 10677 10678 10679 10679 10679 10680 10681 10682 10683 10684 10686 10687 10689 10691 10692 10693 10693 10693 10693 10693 10693 10693 10693 10693 10693 10694 10694 10694 10694 10694 10694 10694 10694 10694 10694 10694 10693 10693 10693 10694 10694 10694
10570 10573 10575 10578 10580 10583 10584 10584 10585 10587 10589 10591 10593 10596 10599 10602 10605 10608 10611 10614 10617 10620 10622 10625 10627 10629 10632 10634 10636 10638 10640 10642 10644 10646 10648 10650 10652 10655 10658 10661 10664 10666 10667 10669 10670 10672 10674 10675 10675 10675 10675 10676 10678 10679 10680 10681 10683 10684 10686 10687 10688 10688 10689 10689 10689 10689 10689 10689 10689 10689 10689 10689 10690 10690 10690 10690 10690 10690 10690 10690 10690 10689 10689 10689 10689 10689 10689
10568 10571 10573 10575 10577 10579 10580 10581 10582 10584 10586 10588 10590 10592 10594 10597 10600 10602 10605 10608 10611 10613 10616 10619 10621 10624 10627 10629 10630 10632 10633 10635 10637 10639 10642 10644 10647 10650 10654 10656 10658 10660 10662 10664 10665 10667 10670 10671 10671 10670 10670 10671 10672 10674 10675 10676 10677 10679 10680 10682 10683 10683 10684 10684 10685 10685 10685 10685 10685 10685 10685 10685 10685 10685 10686 10686 10686 10686 10686 10686 10686 10686 10685 10685 10684 10684 10684
10566 10568 10570 10571 10572 10573 10575 10576 10579 10581 10583 10585 10587 10589 10591 10593 10595 10597 10599 10601 10604 10607 10610 10613 10616 10618 10621 10623 10624 10625 10626 10628 10630 10633 10636 10639 10642 10646 10649 10651 10653 10655 10657 10659 10660 10663 10665 10666 10666 10664 10663 10663 10665 10668 10670 10671 10672 10673 10675 10677 10678 10678 10679 10679 10679 10679 10680 10680 10681 10681 10681 10681 10681 10681 10681 10682 10682 10682 10682 10682 10682 10681 10681 10680 10680 10679 10679
10565 10567 10568 10569 10569 10570 10572 10573 10576 10578 10580 10581 10583 10585 10587 10589 10591 10593 10595 10597 10599 10602 10605 10607 10610 10612 10615 10616 10618 10619 10620 10622 10625 10628 10631 10634 10638 10641 10644 10645 10647 10650 10652 10654 10656 10658 10659 10659 10658 10657 10657 10658 10661 10664 10667 10668 10669 10670 10671 10672 10673 10674 10674 10674 10674 10674 10674 10675 10675 10676 10676 10676 10677 10677 10677 10677 10678 10678 10678 10678 10678 10677 10676 10676 10676 10675 10675
10564 10565 10567 10568 10568 10569 10570 10572 10573 10575 10577 10579 10580 10582 10584 10586 10588 10590 10592 10594 10596 10599 10601 10603 10606 10608 10610 10611 10613 10615 10616 10618 10621 10624 10627 10630 10633 10636 10638 10640 10642 10644 10646 10648 10650 10651 10650 10650 10651 10653 10654 10656 10658 10661 10663 10664 10665 10665 10666 10668 10669 10669 10669 10669 10669 10668 10668 10669 10669 10670 10670 10671 10671 10672 10672 10672 10672 10672 10672 10672 10672 10672 10672 10671 10671 10671 10670
10563 10564 10566 10567 10568 10569 10570 10571 10572 10574 10575 10577 10579 10580 10582 10584 10585 10587 10589 10592 10594 10596 10598 10600 10602 10604 10606 10607 10609 10610 10612 10614 10617 10619 10622 10624 10627 10630 10632 10634 10636 10638 10639 10641 10643 10643 10643 10644 10646 10648 10649 10651 10652 10654 10656 10657 10658 10659 10660 10661 10662 10663 10664 10664 10663 10663 10663 10663 10663 10664 10664 10665 10666 10666 10667 10667 10667 10667 10667 10667 10667 10667 10667 10666 10666 10665 10665
10561 10562 10563 10565 10566 10567 10569 10570 10571 10573 10574 10576 10577 10578 10580 10581 10583 10585 10587 10589 10591 10593 10595 10596 10598 10600 10602 10603 10605 10606 10608 10609 10611 10613 10616 10618 10621 10624 10626 10628 10630 10631 10632 10633 10634 10636 10637 10639 10641 10642 10643 10644 10645 10647 10649 10650 10651 10652 10653 10654 10655 10657 10657 10658 10658 10658 10658 10658 10658 10658 10659 10659 10660 10661 10661 10662 10662 10661 10661 10661 10661 10661 10661 10660 10660 10660 10659
10559 10560 10561 10563 10564 10565 10566 10568 10569 10571 10572 10574 10575 10576 10578 10579 10581 10582 10584 10586 10588 10589 10591 10593 10594 10596 10597 10599 10600 10602 10603 10604 10606 10608 10610 10612 10615 10618 10620 10622 10623 10625 10626 10626 10628 10629 10631 10632 10634 10635 10637 10638 10639 10640 10642 10643 10645 10646 10647 10648 10648 10649 10650 10650 10651 10651 10652 10652 10652 10652 10652 10653 10653 10654 10655 10656 10656 10656 10655 10655 10655 10655 10654 10654 10654 10654 10653
10557 10559 10560 10561 10562 10563 10565 10566 10568 10569 10571 10572 10573 10574 10576 10577 10578 10579 10581 10583 10584 10586 10588 10589 10590 10592 10593 10594 10596 10597 10598 10600 10602 10603 10605 10608 10610 10612 10614 10616 10617 10618 10620 10621 10622 10623 10624 10625 10627 10628 10630 10631 10632 10633 10635 10637 10638 10640 10641 10641 10642 10642 10643 10643 10643 10644 10644 10644 10644 10645 10645 10646 10646 10647 10648 10649 10649 10650 10649 10649 10648 10648 10648 10648 10648 10647 10647